User: anonymous   Login
Location: Unspecified
(0.0000°N, 0.0000°E)
Time: 05:20:56
(UTC+00:00)
Language:

STARLINK-35187 - Orbit

View from above orbital plane
View from above orbital plane
View from above satellite
View from above satellite

Ground track
Ground track

The orbit is defined by the following mean orbital elements,

1 65521U          26145.45572869 +.00000000 +00000-0 +17325-2 0 00006
2 65521  97.4533 215.1204 0001066 135.3457 224.7856 15.05723058    08
Epoch (UTC): 25 May 2026 10:56:14
Eccentricity: 0.0001066
inclination: 97.4533°
perigee height: 549 km
apogee height: 550 km
right ascension of ascending node: 215.1204°
argument of perigee: 135.3457°
revolutions per day: 15.05723058
mean anomaly at epoch: 224.7856°

The dashed part of the orbit path shows where the satellite is in the earth's shadow,  

DLR